Theta_e
323 323 324 325 325 325 325 325 324 324 323 321 318 316 312 308 307 310 312 313 312 309 307 312 314 317 318 319 320 322 326 326 326 324 327 323 324 324 324 324 324 323 323 322 321
324 324 324 324 325 325 325 324 324 323 321 319 316 314 308 306 306 311 312 309 311 310 311 316 318 320 321 321 321 322 325 326 325 324 323 323 323 322 322 323 322 323 322 320 320
324 324 324 324 324 324 323 323 323 321 319 316 313 310 306 305 311 313 313 311 311 309 316 317 320 322 323 322 322 323 324 324 322 321 321 321 321 320 320 320 320 319 319 318 318
324 324 323 323 323 323 323 322 321 319 316 312 309 306 304 304 314 316 313 315 316 317 317 319 320 321 321 322 321 321 320 319 319 319 319 320 320 320 319 318 317 317 317 317 317
326 324 324 323 323 322 321 321 320 317 312 307 305 303 303 311 312 312 307 312 315 317 318 318 319 319 320 318 318 318 318 319 319 319 318 318 318 319 318 317 317 316 316 317 317
323 325 323 323 322 321 320 319 317 312 308 305 303 303 308 312 311 311 307 311 315 316 316 316 317 318 318 318 318 321 320 320 319 318 317 317 317 316 316 316 316 317 317 317 318
324 322 322 321 321 320 318 316 311 306 304 302 302 302 309 310 309 311 308 311 313 314 316 316 316 316 316 319 318 318 318 318 318 318 318 316 317 317 317 317 316 317 316 317 316
315 316 321 320 319 317 313 310 306 302 301 302 301 306 310 309 309 310 311 311 312 312 313 314 314 315 317 317 317 317 319 319 319 317 317 315 317 319 317 317 317 317 317 317 315
312 310 311 314 314 311 307 303 302 300 301 301 303 312 311 310 308 308 310 311 312 312 314 315 315 316 317 318 318 319 319 319 318 317 317 316 317 318 316 316 316 317 318 317 314
311 310 309 306 307 306 301 300 301 300 303 307 309 310 309 309 310 311 311 310 312 311 314 315 316 318 318 319 319 319 320 318 318 318 317 317 317 317 316 316 317 318 318 316 314
311 310 309 306 304 303 300 304 308 311 308 309 311 309 310 310 311 313 313 311 313 312 316 315 318 318 318 319 319 318 317 316 317 317 317 318 318 317 317 317 318 319 318 316 314
309 308 306 306 305 300 300 309 308 311 310 310 309 309 310 312 313 314 314 314 314 315 314 317 318 317 317 318 318 318 317 317 317 317 317 317 317 317 319 319 318 317 316 314 314
307 308 307 306 302 300 300 307 308 310 308 307 308 308 308 308 310 313 314 315 315 315 316 318 317 317 316 318 317 317 317 317 317 317 317 317 317 319 319 318 316 315 314 313 312
307 306 306 304 301 305 306 304 308 304 309 309 308 310 308 309 310 308 314 314 316 315 315 316 316 315 315 317 316 317 316 316 316 315 317 318 320 318 321 319 317 315 314 313 311
307 305 305 303 306 304 306 303 308 306 312 312 310 310 310 309 310 309 310 314 314 314 314 315 315 315 316 315 315 316 316 315 315 316 317 317 318 318 319 320 319 317 315 312 310
306 305 305 303 303 306 306 306 309 312 311 312 312 311 313 310 309 312 309 312 313 314 315 315 315 316 316 316 316 315 315 315 316 317 318 317 317 317 319 319 318 317 314 312 308
306 305 305 303 303 307 304 308 310 308 310 312 313 313 313 312 311 314 311 313 313 312 315 316 315 315 315 316 315 316 316 318 319 321 321 318 317 317 318 317 316 316 314 312 308
306 305 304 302 304 305 306 310 306 307 311 310 312 314 314 313 313 314 313 312 312 313 314 316 315 315 315 315 316 316 316 317 315 316 316 317 318 318 318 316 315 314 314 311 307
305 305 304 301 303 304 307 308 306 308 310 309 312 315 314 314 314 315 315 313 312 313 314 316 316 316 315 314 314 316 317 316 316 316 317 316 316 318 317 316 314 313 312 310 306
306 303 303 303 302 306 307 308 307 307 308 307 308 312 313 315 313 316 315 314 314 313 314 314 315 314 315 315 315 315 315 317 317 316 316 315 316 319 319 317 315 314 312 308 306
305 302 301 303 303 304 307 307 307 307 306 307 306 310 311 313 314 316 315 314 314 314 314 314 313 314 316 315 313 314 316 316 316 316 316 316 318 319 320 317 316 314 313 308 305
300 301 302 303 303 303 307 307 305 307 307 309 309 309 307 311 313 314 314 314 313 314 314 314 313 312 315 314 314 314 315 315 321 317 319 319 321 317 317 316 315 314 312 309 306
298 300 302 302 304 306 305 305 305 306 307 307 308 309 310 309 309 310 310 313 312 314 314 314 316 315 312 312 315 316 315 316 316 317 318 319 319 316 315 314 314 314 313 308 306
298 302 302 301 303 304 304 305 305 305 306 306 307 308 309 310 310 308 309 312 312 313 309 313 314 312 312 313 316 317 316 315 315 319 319 319 317 316 315 315 314 314 312 308 306
298 301 301 302 303 305 305 305 306 306 306 306 308 307 308 308 307 308 307 309 310 310 310 311 313 311 311 313 314 314 315 315 316 316 319 318 315 316 315 314 314 313 311 307 305
298 300 300 304 303 305 306 305 304 304 305 306 306 306 306 307 307 307 308 308 308 308 309 311 312 311 311 312 311 310 310 311 311 313 314 314 315 314 313 312 312 313 310 307 305
298 300 302 305 305 306 307 305 305 304 304 304 305 305 305 306 305 305 305 306 307 308 310 310 311 311 312 309 309 310 309 310 310 310 310 312 312 312 312 312 312 313 311 308 305
Wind_Speed
17 17 16 16 15 16 17 18 19 20 21 22 23 23 24 24 23 16 14 13 14 10 9 6 7 6 6 8 8 8 9 10 3 4 9 5 5 6 1 5 1 1 3 7 10
19 19 17 18 19 19 19 20 20 21 21 22 23 22 23 23 23 19 16 14 12 7 2 6 7 7 11 7 6 9 9 7 8 5 5 5 4 5 5 3 6 3 1 8 7
23 21 21 21 22 21 20 21 21 21 22 22 22 21 20 20 18 2 6 1 5 8 3 5 5 7 10 6 8 5 12 8 5 3 3 5 7 2 8 7 3 6 9 6 8
26 24 24 23 23 23 23 22 22 21 21 22 20 19 18 14 7 3 1 1 6 5 3 5 7 9 8 10 5 8 8 5 1 4 7 7 8 11 10 9 6 5 3 6 7
30 30 26 25 25 24 23 22 22 21 21 20 19 17 14 11 17 18 11 6 5 3 5 6 8 7 10 5 5 11 10 4 7 8 11 10 12 13 11 1 3 2 3 5 6
30 30 27 27 25 26 24 23 21 19 19 19 18 15 10 18 10 12 11 8 9 8 7 8 6 5 8 8 9 4 7 9 10 12 12 11 13 5 8 6 5 4 4 6 6
35 31 29 29 27 26 24 22 19 18 18 17 17 14 13 22 8 8 9 8 10 9 10 9 7 8 2 7 8 9 11 13 15 10 6 8 14 11 8 7 5 5 4 5 6
17 21 30 27 25 23 20 19 17 17 16 15 15 8 13 11 11 14 11 11 9 8 8 8 8 10 9 1 6 10 11 11 10 9 7 6 10 16 10 9 10 7 5 3 4
16 13 14 20 22 20 17 15 15 15 13 12 10 6 13 13 11 12 14 13 10 9 8 8 6 11 9 12 11 12 11 13 10 10 4 8 8 2 7 7 10 9 2 2 2
14 16 16 13 18 17 13 13 12 13 11 7 9 8 17 6 6 7 11 15 14 12 8 12 11 10 11 12 12 9 13 8 10 12 9 11 15 14 11 9 6 9 2 3 3
22 18 16 16 14 14 11 4 4 7 18 15 6 12 3 5 7 7 10 17 13 18 13 17 11 14 19 17 17 10 11 13 12 7 5 14 18 12 12 2 8 6 2 2 2
22 19 16 16 15 13 11 8 6 5 12 20 25 26 16 4 8 13 15 15 19 17 17 9 17 18 12 5 10 12 14 15 14 7 5 16 17 14 5 7 7 6 6 3 1
21 20 19 17 16 19 16 10 8 6 10 20 26 29 23 20 15 19 21 20 17 18 18 17 1 10 12 11 14 15 16 14 13 7 12 19 19 25 11 9 9 8 4 2 1
23 19 18 17 17 14 17 16 6 1 5 10 12 12 19 16 13 29 25 18 15 16 17 15 20 10 12 16 14 15 14 10 10 10 9 6 9 2 16 14 14 12 8 4 1
25 21 22 24 4 19 7 14 11 4 4 7 11 7 11 21 5 20 27 27 20 16 14 12 13 15 18 19 13 13 2 7 10 11 13 17 11 13 13 17 14 14 10 6 3
28 26 23 22 16 10 10 16 14 4 11 9 9 11 14 23 14 6 26 23 16 20 16 19 3 12 15 9 10 2 7 9 10 11 12 19 18 11 11 12 13 11 11 8 5
31 29 28 21 21 16 18 22 6 8 7 9 9 12 17 13 18 14 20 22 15 17 20 15 16 11 8 11 10 13 11 6 10 9 10 3 7 12 8 9 4 11 10 9 7
32 30 29 25 16 21 27 10 9 17 26 4 6 11 17 14 18 18 18 20 26 19 10 16 16 21 17 16 11 19 15 8 10 10 10 8 7 3 9 12 9 6 10 11 9
35 36 32 33 26 28 25 12 14 16 21 21 7 14 16 18 9 15 18 20 22 20 14 15 15 21 11 17 17 12 16 14 16 16 12 12 16 10 9 12 11 11 12 13 11
43 40 42 33 30 32 16 17 17 26 14 12 23 15 17 17 13 15 16 16 18 24 18 7 9 12 9 12 13 12 8 7 8 7 17 15 16 10 16 13 12 14 17 15 13
32 18 28 37 30 27 11 19 26 23 8 10 17 19 14 15 18 19 16 4 16 16 18 10 8 10 11 14 14 12 11 10 10 14 12 14 12 6 11 12 14 16 19 20 18
16 7 26 41 15 18 11 32 32 28 12 7 7 7 12 6 15 17 13 6 4 6 14 16 6 12 16 12 17 18 21 19 11 17 12 13 17 2 7 7 12 16 21 22 20
5 8 31 47 11 15 26 29 25 25 17 15 9 7 5 9 8 10 9 7 4 6 1 7 6 9 14 13 9 15 21 19 20 16 23 14 10 4 2 4 9 12 20 23 22
6 4 12 31 12 20 26 20 26 30 19 15 16 15 9 9 8 6 7 5 4 6 10 4 9 12 15 16 2 6 19 19 21 15 18 20 24 21 8 9 11 10 20 22 23
15 4 7 9 13 17 25 21 24 26 24 15 7 14 16 14 14 12 8 6 6 4 1 4 9 16 21 23 11 11 13 18 18 17 12 18 19 21 17 12 22 17 20 20 24
11 8 8 24 33 22 21 25 26 25 22 22 18 15 17 13 14 12 14 15 15 14 15 11 9 17 22 23 22 22 22 26 22 23 23 23 25 23 28 28 21 22 21 23 23
17 14 14 12 22 18 20 27 27 23 24 30 25 20 18 17 20 20 20 13 13 13 14 16 13 15 21 20 20 18 29 23 25 26 24 23 24 24 20 17 16 15 23 24 23
Wind_Direction
266 269 273 278 283 291 297 302 305 309 312 314 315 319 321 320 319 317 294 253 250 272 243 265 259 248 251 243 244 253 257 248 126 210 96 132 246 136 322 257 298 256 38 353 349
261 264 267 276 283 286 292 297 300 304 308 309 311 315 319 321 321 300 260 267 255 220 165 236 238 239 225 225 218 242 241 10 31 37 111 171 229 344 298 236 283 240 246 339 347
256 256 263 271 278 284 288 292 296 300 302 303 307 312 318 324 316 223 276 233 168 175 229 215 228 239 247 229 202 214 261 42 119 6 306 289 262 253 265 261 200 325 302 323 336
253 253 259 266 273 282 285 288 291 295 298 300 303 309 315 319 300 245 283 133 126 124 198 205 217 231 250 228 208 256 240 273 315 208 278 265 289 280 276 272 289 274 289 312 335
245 251 255 261 268 278 284 285 287 291 293 295 299 305 318 279 265 263 264 233 191 212 215 218 236 233 245 258 249 246 259 225 251 254 265 274 267 267 261 263 200 206 284 331 352
249 246 251 258 265 274 281 281 282 285 287 291 294 300 303 271 264 257 254 228 222 226 227 227 241 240 280 249 251 24 288 256 250 258 259 269 261 233 209 188 225 253 287 38 21
238 243 247 255 259 266 273 275 280 282 284 287 290 298 273 252 264 253 248 216 221 222 229 233 232 222 201 227 236 260 258 248 234 241 235 254 249 214 170 198 256 266 302 57 29
234 241 245 249 254 261 265 270 276 277 278 283 286 289 267 261 239 242 231 223 213 218 219 225 225 236 230 220 225 246 236 258 171 179 166 241 283 149 178 224 281 297 318 103 45
268 266 266 255 253 254 258 264 271 275 277 280 292 264 266 246 262 246 223 214 214 203 198 205 206 221 188 223 221 212 255 210 180 196 236 232 285 133 197 261 279 288 256 132 94
285 275 260 263 263 253 252 261 274 282 286 264 248 262 241 242 217 221 210 203 197 197 200 204 210 217 214 210 224 268 207 226 255 157 211 247 262 266 258 256 288 281 164 141 95
258 268 268 263 256 251 246 274 278 254 220 215 249 229 211 223 219 214 199 181 202 192 204 204 213 215 218 219 258 291 278 273 275 263 236 257 262 262 253 193 231 230 208 146 97
237 229 234 246 256 244 206 214 265 307 288 247 247 245 242 245 214 203 180 184 185 199 209 182 228 235 249 277 245 238 250 255 261 263 294 265 267 258 191 213 252 233 193 178 127
239 231 223 223 229 234 225 219 259 296 266 267 240 237 228 222 232 194 194 212 198 211 200 222 307 204 243 220 233 235 248 258 269 264 251 264 267 250 146 180 187 203 199 189 46
231 228 227 215 217 224 216 210 223 1 281 251 212 244 206 204 236 217 205 207 215 227 223 237 244 205 224 231 222 252 237 240 261 253 263 109 279 181 181 190 197 195 206 200 196
224 226 221 217 210 199 211 183 176 143 276 117 141 168 193 196 133 206 201 218 237 213 232 226 223 205 226 228 232 259 147 226 243 251 266 262 264 268 237 181 199 197 192 186 155
222 215 211 206 195 190 206 156 149 182 235 191 154 202 184 206 222 143 194 216 228 245 217 247 233 209 230 216 198 224 207 215 233 250 256 250 241 272 221 192 191 172 176 178 172
214 212 210 198 202 186 177 154 163 217 209 197 192 187 207 188 201 186 187 196 196 203 221 219 210 215 211 175 199 194 205 232 220 210 246 149 268 255 130 150 139 168 188 177 174
220 215 210 211 187 187 172 186 196 225 231 110 181 189 206 178 210 200 192 200 214 215 220 212 209 207 199 210 189 208 213 231 248 247 276 121 232 210 93 127 138 167 181 175 181
227 210 204 204 202 190 187 198 209 210 214 220 191 200 208 189 214 194 213 208 200 214 222 202 223 178 182 211 237 193 221 249 273 277 271 254 259 134 143 148 168 176 180 182 191
219 206 207 200 194 193 203 216 221 231 263 245 222 216 204 195 206 194 187 205 207 206 230 225 179 187 166 204 231 234 222 212 229 255 244 255 254 277 177 185 189 188 191 189 192
226 203 207 194 185 200 216 217 230 234 200 238 235 234 245 196 205 192 185 136 198 201 209 232 246 168 154 205 191 199 223 226 245 237 261 271 272 66 167 191 195 197 196 189 194
249 183 195 188 180 204 214 215 224 239 208 225 311 279 235 215 206 195 201 167 168 176 200 217 235 227 206 219 231 231 212 226 223 238 258 267 269 164 164 190 197 197 194 189 194
265 191 187 181 183 191 218 222 228 235 231 229 237 240 270 198 221 221 209 77 95 203 275 179 227 232 249 258 241 235 235 218 245 238 248 249 245 117 152 228 217 214 185 186 189
236 227 182 185 192 201 204 215 222 229 242 260 243 235 220 232 243 213 201 94 31 68 36 7 246 246 242 239 156 253 256 254 251 236 252 250 261 267 189 265 284 209 179 187 191
198 260 222 171 194 214 201 208 210 210 206 220 259 239 240 232 235 232 256 187 245 180 226 29 256 250 252 259 178 239 249 259 250 254 243 265 260 264 279 284 214 213 184 194 188
212 188 233 181 187 204 212 210 213 214 208 226 228 243 244 254 263 237 230 239 236 242 241 181 237 253 267 280 266 265 254 251 260 247 249 255 257 260 264 274 270 184 189 198 196
225 194 200 200 190 203 208 209 212 209 218 213 223 230 243 236 251 260 279 235 251 254 252 252 241 246 252 244 258 265 255 266 264 261 264 263 265 270 277 282 243 201 191 201 198